This is the latest recevied weather packets stored in our database for station/object IZ1UQG-1. If no packets are shown the sender has not sent any weather packets the latest 10 day(s).
| Time | Temp. | Humidity | Pressure | Rain* | Wind** | Luminosity | Snow |
|---|---|---|---|---|---|---|---|
| 1777371851 | 20.56° C | 69% | 1015.7 hPa | 18.03 mm | - | - | - |
| 1777371550 | 20.56° C | 68% | 1015.7 hPa | 239.52 mm | - | - | - |
| 1777371250 | 20.56° C | 67% | 1015.6 hPa | 231.65 mm | - | - | - |
| 1777370950 | 20.56° C | 67% | 1015.7 hPa | 225.55 mm | - | - | - |
| 1777370650 | 20.56° C | 66% | 1015.8 hPa | 210.57 mm | - | - | - |
| 1777370350 | 20.56° C | 66% | 1015.8 hPa | 155.19 mm | - | - | - |
| 1777370050 | 20.56° C | 65% | 1015.7 hPa | 212.6 mm | - | - | - |
| 1777369750 | 20.56° C | 64% | 1015.6 hPa | 197.1 mm | - | - | - |
| 1777369450 | 21.11° C | 64% | 1015.7 hPa | 185.17 mm | - | - | - |
| 1777369150 | 21.11° C | 63% | 1015.8 hPa | 180.59 mm | - | - | - |
| 1777368850 | 21.11° C | 61% | 1015.7 hPa | 221.49 mm | - | - | - |
| 1777368550 | 21.11° C | 60% | 1015.5 hPa | 191.77 mm | - | - | - |
| 1777368251 | 21.67° C | 59% | 1015.6 hPa | 223.52 mm | - | - | - |
| 1777367950 | 21.67° C | 58% | 1015.6 hPa | 194.06 mm | - | - | - |
| 1777367650 | 21.67° C | 57% | 1015.6 hPa | 5.84 mm | - | - | - |
| 1777367351 | 21.67° C | 55% | 1015.5 hPa | 5.84 mm | - | - | - |
| 1777367051 | 21.67° C | 55% | 1015.5 hPa | 24.89 mm | - | - | - |
| 1777366751 | 22.22° C | 55% | 1015.6 hPa | 240.54 mm | - | - | - |
| 1777366451 | 22.22° C | 56% | 1015.4 hPa | 47.24 mm | - | - | - |
| 1777366151 | 22.22° C | 56% | 1015.4 hPa | 26.42 mm | - | - | - |
| 1777365851 | 22.22° C | 57% | 1015.4 hPa | 12.95 mm | - | - | - |
| 1777365551 | 21.67° C | 57% | 1015.3 hPa | 204.22 mm | - | - | - |
| 1777365251 | 21.67° C | 58% | 1015.2 hPa | 31.75 mm | - | - | - |
| 1777364951 | 21.67° C | 58% | 1015.2 hPa | 25.91 mm | - | - | - |
| 1777364651 | 21.67° C | 58% | 1015.2 hPa | 21.34 mm | - | - | - |
* Rain latest hour (hover to see other rain measurements)
** Current wind speed in m/s (hover to see current wind gust speed)